AO-07 1 07530U 74089B 21014.56463090 -.00000051 00000-0 -35424-4 0 9994 2 07530 101.8332 349.3635 0012155 319.1368 151.1454 12.53646913112446 UO-11 1 14781U 84021B 21014.51710494 .00000102 00000-0 18514-4 0 9991 2 14781 97.5896 21.9731 0007406 219.9770 140.0900 14.83237123963110 LO-19 1 20442U 90005G 21014.80365231 -.00000006 00000-0 14223-4 0 9995 2 20442 98.7214 329.0506 0010691 251.7473 108.2547 14.32973296618880 HUBBLE 1 20580U 90037B 21014.35324601 .00000504 00000-0 19589-4 0 9991 2 20580 28.4712 4.6336 0002629 197.1444 305.6738 15.09534634487799 MET-2/21 1 22782U 93055A 21014.58796169 -.00000007 00000-0 -19267-4 0 9990 2 22782 82.5478 66.0336 0022427 6.4875 103.7565 13.83831919382240 AO-27 1 22825U 93061C 21014.59711373 -.00000011 00000-0 13573-4 0 9998 2 22825 98.9240 28.3766 0009343 119.4513 240.7601 14.30103542423998 IO-26 1 22826U 93061D 21014.81370861 -.00000007 00000-0 15376-4 0 9995 2 22826 98.9182 28.5225 0009949 107.9175 252.3092 14.30441084424512 FO-29 1 24278U 96046B 21014.49890162 .00000000 00000-0 35816-4 0 9992 2 24278 98.5850 102.7684 0350304 188.2761 171.2505 13.53101765205422 NOAA-15 1 25338U 98030A 21014.77536244 .00000028 00000-0 30308-4 0 9995 2 25338 98.6986 44.5451 0010544 13.9762 346.1707 14.26008587179347 GO-32 1 25397U 98043D 21014.56523472 -.00000010 00000-0 14992-4 0 9993 2 25397 98.7540 320.6908 0001789 132.5371 227.5959 14.23699211169593 ISS 1 25544U 98067A 21014.87156498 .00001899 00000-0 42163-4 0 9993 2 25544 51.6460 21.0493 0000363 230.6069 201.6701 15.49294771264830 NO-44 1 26931U 01043C 21014.58336483 -.00000037 00000-0 17646-4 0 9996 2 26931 67.0524 317.5391 0007442 272.1319 87.8930 14.30602597 7344 SO-50 1 27607U 02058C 21014.53798419 .00000005 00000-0 20994-4 0 9994 2 27607 64.5559 88.9837 0029355 90.1028 270.3439 14.75702180971869 CO-55 1 27844U 03031E 21014.69447729 .00000044 00000-0 39574-4 0 9998 2 27844 98.6815 25.2305 0010234 158.5963 201.5645 14.22282038910160 CO-57 1 27848U 03031J 21014.57174686 .00000023 00000-0 30397-4 0 9999 2 27848 98.6876 25.6778 0009906 171.3462 188.7888 14.21862799909946 RS-22 1 27939U 03042A 21014.84377313 .00000085 00000-0 23873-4 0 9993 2 27939 98.1167 153.2458 0013818 50.0548 310.1873 14.66932741925007 NOAA-18 1 28654U 05018A 21014.81351072 .00000108 00000-0 82646-4 0 9993 2 28654 99.0166 78.9195 0014071 359.5468 0.5688 14.12572955806844 CO-58 1 28895U 05043F 21014.36011346 .00000112 00000-0 30429-4 0 9992 2 28895 98.0357 151.1933 0016180 340.0320 20.0248 14.63853317811464 Falconsat-3 1 30776U 07006E 21014.33587432 .00003183 00000-0 80876-4 0 9997 2 30776 35.4357 9.6085 0003460 282.4928 77.5412 15.39309360769331 CO-65 1 32785U 08021C 21014.20692791 .00000216 00000-0 28746-4 0 9990 2 32785 97.5942 359.2071 0013688 148.7213 211.4821 14.88610839689293 AAUSAT2 1 32788U 08021F 21014.52862652 .00000630 00000-0 62014-4 0 9999 2 32788 97.4972 15.7352 0013079 69.7410 290.5217 14.95343021690854 DO-64 1 32789U 08021G 21014.54181550 .00001234 00000-0 83186-4 0 9997 2 32789 97.3950 55.7403 0010723 316.8296 43.2091 15.08388255693626 CO-66 1 32791U 08021J 21014.84702711 .00000494 00000-0 54934-4 0 9997 2 32791 97.5571 5.8636 0014563 115.2692 245.0038 14.91246399689969 RS-30 1 32953U 08025A 21014.82679015 .00000028 00000-0 12906-3 0 9994 2 32953 82.5040 146.4793 0018654 313.1675 46.7842 12.43099527573892 PRISM 1 33493U 09002B 21014.58090078 .00000059 00000-0 10628-4 0 9993 2 33493 98.1696 329.9319 0016152 75.9821 284.3194 14.97376385651293 NOAA-19 1 33591U 09005A 21014.76257873 .00000030 00000-0 41559-4 0 9999 2 33591 99.1927 31.5829 0013644 200.0748 159.9888 14.12448542615226 TISAT-1 1 36799U 10035E 21014.50166475 .00000348 00000-0 40824-4 0 9992 2 36799 98.2019 199.0944 0012190 4.4523 355.6800 14.91569409570380 JUGNU 1 37839U 11058B 21014.54176697 .00000322 00000-0 29538-4 0 9996 2 37839 19.9620 82.6180 0018756 195.0278 193.1728 14.12700395478678 SRMSAT 1 37841U 11058D 21014.71059632 .00000289 00000-0 13553-4 0 9999 2 37841 19.9708 150.2936 0011978 44.8415 343.4049 14.10682992478128 AO-71 1 37854U 11061E 21014.54660540 .00001481 00000-0 80441-4 0 9999 2 37854 101.7129 221.0753 0156125 153.8395 207.0813 15.08055010503288 HRBE 1 37855U 11061F 21014.56231548 .00001985 00000-0 10334-3 0 9996 2 37855 101.7257 218.1518 0168631 168.1841 192.3406 15.07085120502992 HORYU-2 1 38340U 12025D 21014.12343462 .00000192 00000-0 35683-4 0 9992 2 38340 98.2541 78.4539 0012710 89.6191 270.6474 14.75959906455627 RS-40 1 38735U 12041C 21014.48496746 .00000022 00000-0 84803-4 0 9991 2 38735 82.4748 229.0714 0017829 61.8908 298.3981 12.42581472384062 BEESAT-3 1 39135U 13015F 21014.85659752 .00001236 00000-0 68489-4 0 9997 2 39135 64.8679 338.4101 0018309 208.7710 151.2408 15.18827083427703 BEESAT-2 1 39136U 13015G 21014.33001292 .00001148 00000-0 65115-4 0 9996 2 39136 64.8743 345.8815 0029498 263.6561 96.1206 15.18202628427115 ZACUBE-1 1 39417U 13066B 21014.85878830 .00000252 00000-0 37908-4 0 9995 2 39417 97.5790 7.2799 0057505 305.6513 53.9354 14.81408522386339 TRITON-1 1 39427U 13066M 21014.83734363 .00000206 00000-0 40345-4 0 9994 2 39427 97.7564 330.3713 0114680 121.6770 239.5680 14.68131500382879 GOMX-1 1 39430U 13066Q 21014.83280982 .00000133 00000-0 33460-4 0 9990 2 39430 97.8079 306.7722 0149320 238.5902 120.0644 14.59521088380636 LO-74 1 39440U 13066AA 21014.51686302 .00000287 00000-0 46601-4 0 9993 2 39440 97.6565 351.6502 0080427 16.0753 344.2981 14.76139906383714 AO-73 1 39444U 13066AE 21014.53067571 .00000304 00000-0 43464-4 0 9994 2 39444 97.5711 9.2951 0056479 297.7168 61.8323 14.82292399384639 SPROUT 1 39770U 14029E 21014.84955044 .00000598 00000-0 71016-4 0 9990 2 39770 97.9074 126.4207 0008875 0.8240 359.2972 14.88123528360499 DUCHIFAT-1 1 40021U 14033M 21014.81065143 .00000370 00000-0 43112-4 0 9999 2 40021 97.9602 313.5244 0011898 316.1844 43.8429 14.91144106357385 NANOSATCBR1 1 40024U 14033Q 21014.55060270 .00000465 00000-0 53757-4 0 9990 2 40024 97.9418 308.9146 0011363 322.7894 37.2534 14.90274414356677 DTUSAT-2 1 40030U 14033W 21014.52597704 .00000305 00000-0 38569-4 0 9998 2 40030 97.9116 301.8728 0011138 327.6201 32.4331 14.88867705356415 EO-80 1 40032U 14033Y 21014.55178438 .00000301 00000-0 38197-4 0 9995 2 40032 97.9122 301.9029 0011088 328.3412 31.7137 14.88820979356390 ANTELSAT 1 40034U 14033AA 21014.54417157 .00000234 00000-0 41626-4 0 9996 2 40034 97.6900 225.8461 0059403 37.4645 323.0683 14.74380251352989 VELOX-1 1 40057U 14034E 21014.66402272 .00000357 00000-0 57081-4 0 9995 2 40057 98.3044 163.8162 0010906 183.1054 177.0094 14.78041005352829 DAURIA DX 1 1 40071U 14037C 21014.79544820 .00000128 00000-0 23874-4 0 9993 2 40071 98.4573 210.9498 0008345 171.8897 188.2452 14.81441387352544 HODOYOSHI-1 1 40299U 14070B 21014.78905206 .00000815 00000-0 36002-4 0 9990 2 40299 97.3049 92.4278 0013243 163.3527 314.3462 15.24418194344003 CHUBUSAT-1 1 40300U 14070C 21014.76057292 .00000878 00000-0 40210-4 0 9999 2 40300 97.2651 83.3432 0019051 185.2854 290.9675 15.22885171343661 QSAT-EOS 1 40301U 14070D 21014.74982957 .00002521 00000-0 94500-4 0 9991 2 40301 97.2734 90.2230 0025106 155.6669 320.4939 15.27884926344182 FIREBIRD FU3 1 40377U 15003B 21014.56672088 .00001909 00000-0 74723-4 0 9996 2 40377 99.0839 123.9394 0120000 328.7838 30.6303 15.21239555329382 FIREBIRD FU4 1 40378U 15003C 21014.81086944 .00001816 00000-0 71205-4 0 9994 2 40378 99.0843 124.3510 0120101 327.8004 31.5931 15.21278764329438 GRIFEX 1 40379U 15003D 21014.78415138 .00001270 00000-0 55941-4 0 9995 2 40379 99.0850 114.8863 0130392 357.2044 2.8440 15.17252262328880 NO-84 1 40654U 15025D 21013.36363367 .00020087 00000-0 18948-3 0 1549 2 40654 54.9838 48.8481 0098681 17.7618 342.6957 15.61036929201723 DEORBITSAIL 1 40719U 15032E 21014.58481064 .00000391 00000-0 62202-4 0 9995 2 40719 97.8472 263.7322 0014989 244.3006 115.6658 14.77205803297260 NUDT-PHONESAT 1 40900U 15049B 21014.79401551 .00003021 00000-0 12271-3 0 9994 2 40900 97.4256 29.9951 0011309 328.0364 117.8565 15.25302909295390 XW-2A 1 40903U 15049E 21014.78382132 .00002925 00000-0 65515-4 0 9991 2 40903 97.2605 69.6482 0011713 208.0545 259.1304 15.44212674299076 XW-2C 1 40906U 15049H 21014.76524838 .00000636 00000-0 36084-4 0 9999 2 40906 97.4827 19.1075 0015087 7.8050 97.8899 15.16424754294275 XW-2D 1 40907U 15049J 21014.78624551 .00001052 00000-0 56998-4 0 9994 2 40907 97.4806 18.8758 0014239 4.7371 80.7767 15.16706487294302 LILACSAT-2 1 40908U 15049K 21014.78625097 .00000647 00000-0 38919-4 0 9993 2 40908 97.4986 16.9379 0016310 17.4948 67.6850 15.14254563293973 XW-2E 1 40909U 15049L 21014.78448850 .00001370 00000-0 68620-4 0 9990 2 40909 97.4646 22.6783 0013068 353.4551 93.5553 15.19011780294606 XW-2F 1 40910U 15049M 21014.80175626 .00001489 00000-0 75319-4 0 9997 2 40910 97.4702 21.7708 0014316 352.3924 85.0088 15.18517918294407 XW-2B 1 40911U 15049N 21014.78090926 .00000922 00000-0 50505-4 0 9995 2 40911 97.4811 19.5663 0014204 5.4708 80.5686 15.16626661294190 DCBB 1 40912U 15049P 21014.79033928 .00001594 00000-0 74947-4 0 9998 2 40912 97.4468 26.0745 0013710 326.2833 120.8551 15.20986851294832 TW-1C 1 40926U 15051B 21014.79379935 .00145129 00000-0 52452-3 0 9996 2 40926 97.0480 75.7053 0002081 17.5945 76.2205 15.88246632300246 TW-1A 1 40928U 15051D 21014.78412174 .00004023 00000-0 89149-4 0 9991 2 40928 97.0918 43.4254 0011475 129.1861 348.8235 15.44261470297967 IO-86 1 40931U 15052B 21013.67334494 .00000751 00000-0 15470-4 0 9991 2 40931 5.9987 276.2270 0013579 9.4008 350.6421 14.76658979286389 LQSat 1 40958U 15057A 21014.76829925 .00000019 00000-0 10454-4 0 9998 2 40958 97.8263 76.9416 0017823 186.3979 173.7000 14.73151095283614 ATHENOXAT-1 1 41168U 15077C 21014.17303241 .00002332 00000-0 84651-4 0 9997 2 41168 14.9905 314.7508 0011194 183.1981 214.1708 15.15071300281349 ChubuSat-2 1 41338U 16012B 21014.46609026 .00000358 00000-0 21004-4 0 9997 2 41338 31.0039 85.0066 0013695 47.2533 312.9253 15.00422520269452 ChubuSat-3 1 41339U 16012C 21014.57118169 .00000321 00000-0 18063-4 0 9994 2 41339 31.0123 81.7288 0013544 55.7702 304.4216 15.00578306269461 Horyu-4 1 41340U 16012D 21014.55452645 .00000536 00000-0 33582-4 0 9995 2 41340 31.0061 67.2480 0013850 84.3494 275.8721 15.01711732269637 OUFTI-1 1 41458U 16025C 21014.59642301 .00001976 00000-0 10055-3 0 9991 2 41458 98.1230 142.7191 0160111 218.0589 140.9241 15.07763953259288 e-st@r-II 1 41459U 16025D 21014.77361758 .00002112 00000-0 10817-3 0 9995 2 41459 98.1192 142.1326 0161717 220.0116 138.9116 15.07249975259261 AAUSAT4 1 41460U 16025E 21014.83184056 .00004767 00000-0 22867-3 0 9994 2 41460 98.1182 145.3430 0150301 205.9469 153.4271 15.09956763259528 LO-87 1 41557U 16033B 21014.81459113 .00001777 00000-0 66080-4 0 9991 2 41557 97.3993 109.7000 0014720 62.7034 51.4463 15.28767966258057 NuSat2 1 41558U 16033C 21014.82892112 .00001979 00000-0 68855-4 0 9999 2 41558 97.4066 112.8520 0013617 59.2465 56.7071 15.30832299258211 Lapan A3 1 41603U 16040E 21014.81139558 .00000168 00000-0 10880-4 0 9999 2 41603 97.2808 67.3729 0013379 174.4058 295.9638 15.19944345253249 Swayam 1 41607U 16040J 21014.41174949 .00001808 00000-0 74952-4 0 9994 2 41607 97.2911 74.5602 0013500 156.2827 203.9036 15.25071224253566 Pratham 1 41783U 16059A 21014.38700838 .00000063 00000-0 21244-4 0 9995 2 41783 97.9886 69.5822 0033757 14.0846 346.1290 14.63104954229726 AlSat 1N 1 41789U 16059G 21014.76834973 .00000075 00000-0 23090-4 0 9995 2 41789 97.9927 73.2740 0028297 359.7579 0.3595 14.64379645229958 ScatSat 1 41790U 16059H 21014.77385184 .00000012 00000-0 14506-4 0 9996 2 41790 98.3905 57.3162 0005439 3.8900 356.2330 14.50803237227862 TY-1 1 41844U 16066D 21014.77885263 .00001162 00000-0 48891-4 0 9998 2 41844 97.4010 26.6123 0013812 325.5000 138.9375 15.25341067232472 Pegasus-1 1 41846U 16066F 21014.42210742 .00000201 00000-0 41436-4 0 9997 2 41846 98.6341 72.3794 0365565 324.8368 32.9177 14.37918754219282 CAS-2T 1 41847U 16066G 21014.57936043 .00000067 00000-0 21158-4 0 9992 2 41847 98.6257 72.8936 0364666 319.6935 37.7731 14.38135867219764 EO-88 1 42017U 17008BX 21014.44640553 .00001840 00000-0 71383-4 0 9998 2 42017 97.3367 84.7318 0004580 303.1626 56.9173 15.27362866217748 CAS-4B 1 42759U 17034B 21014.77805133 .00000316 00000-0 32490-4 0 9996 2 42759 43.0186 305.8234 0011062 282.9577 169.9906 15.10041525197917 CAS-4A 1 42761U 17034D 21014.77744623 .00000311 00000-0 32137-4 0 9998 2 42761 43.0200 304.9887 0011636 282.6940 170.5453 15.10122157197915 UCLSat 1 42765U 17036A 21014.40989757 .00001481 00000-0 63535-4 0 9998 2 42765 97.2733 68.7067 0011200 11.0459 349.1022 15.24214910198700 NIUSat 1 42766U 17036B 21014.71765286 .00001078 00000-0 49736-4 0 9991 2 42766 97.2730 65.8807 0015163 3.7851 356.3498 15.22244019197824 LituanicaSAT 2 1 42768U 17036D 21014.28619416 .00002459 00000-0 10050-3 0 9998 2 42768 97.2800 68.9604 0013870 358.4820 1.6374 15.25209169197960 Aalto 1 1 42775U 17036L 21014.68954898 .00000878 00000-0 41001-4 0 9990 2 42775 97.2705 66.1636 0013631 3.8954 356.2386 15.22273119197809 URSA MAIOR 1 42776U 17036M 21014.58529911 .00000968 00000-0 44628-4 0 9992 2 42776 97.2719 66.4453 0013421 3.8958 356.2381 15.22502608197809 Max Valier Sat 1 42778U 17036P 21014.59805427 .00001010 00000-0 45626-4 0 9992 2 42778 97.2781 68.1024 0011991 7.1583 352.9823 15.23136151197861 Pegasus 1 42784U 17036V 21014.54646049 .00001316 00000-0 57355-4 0 9998 2 42784 97.2738 68.4391 0011783 11.5456 348.6049 15.23846653197910 NUDATSat 1 42787U 17036Y 21014.79787575 .00002121 00000-0 86474-4 0 9997 2 42787 97.2785 70.6167 0011177 5.4021 354.7336 15.25480156197908 SUCHAI 1 1 42788U 17036Z 21014.55349335 .00001615 00000-0 68394-4 0 9998 2 42788 97.2748 69.2476 0011214 9.5620 350.5830 15.24518206198032 SKCUBE 1 42789U 17036AA 21014.09922098 .00001529 00000-0 65331-4 0 9993 2 42789 97.2742 68.5866 0011200 11.7211 348.4285 15.24305149197879 VZLUSAT 1 1 42790U 17036AB 21014.59291086 .00001967 00000-0 80477-4 0 9990 2 42790 97.2772 70.4074 0010414 7.1209 353.0176 15.25454285198025 VENTA 1 1 42791U 17036AC 21014.40474968 .00001443 00000-0 61855-4 0 9991 2 42791 97.2739 68.9116 0010858 11.4878 348.6605 15.24282136197917 Robusta 1B 1 42792U 17036AD 21014.68169927 .00001528 00000-0 64894-4 0 9998 2 42792 97.2744 69.4736 0010716 10.2067 349.9386 15.24519444197991 D-SAT 1 42794U 17036AF 21014.59227065 .00000299 00000-0 30984-4 0 9995 2 42794 97.4742 42.5584 0126387 20.7503 339.8783 14.91423815194129 TechnoSat 1 42829U 17042E 21014.66165729 .00000309 00000-0 36379-4 0 9993 2 42829 97.4909 252.1442 0012954 304.4137 55.5857 14.91202394190761 QIKCOM-1 1 42983U 98067NF 21014.67538223 .00005449 00000-0 61914-4 0 9997 2 42983 51.6386 319.1118 0004240 122.9741 237.1662 15.64128004183311 AO-91 1 43017U 17073E 21014.46239953 .00000579 00000-0 49425-4 0 9991 2 43017 97.7173 284.4859 0257349 82.6735 280.3646 14.79253872170355 EcAMSat 1 43019U 98067NG 21014.79294025 .00013264 00000-0 10448-3 0 9999 2 43019 51.6408 295.2356 0004600 122.4120 237.7323 15.71818335265964 PICSAT 1 43132U 18004X 21014.37367169 .00001611 00000-0 67027-4 0 9991 2 43132 97.4267 90.2489 0010172 39.6750 320.5230 15.25184867167199 AO-92 1 43137U 18004AC 21014.19967258 .00001285 00000-0 54816-4 0 9990 2 43137 97.4248 89.7340 0009933 42.8120 317.3890 15.24713324167159 TianYi 2 1 43155U 18008A 21014.82019984 .00000646 00000-0 41117-4 0 9998 2 43155 97.4240 84.2812 0018423 135.0403 334.2419 15.12054178164859 Zhou Enlai 1 43156U 18008B 21014.77694926 .00001210 00000-0 74726-4 0 9998 2 43156 97.4291 84.0752 0015730 134.3823 320.6254 15.11634376164795 TianYi 6 1 43158U 18008D 21014.80137147 .00001047 00000-0 66127-4 0 9995 2 43158 97.4223 82.8846 0014538 132.9855 350.3827 15.11115274164737 S-Net D 1 43186U 18014G 21014.48705203 .00000711 00000-0 66899-4 0 9994 2 43186 97.6865 284.7636 0009696 232.4912 127.5429 14.96945650161269 S-Net B 1 43187U 18014H 21014.48692171 .00000709 00000-0 66685-4 0 9994 2 43187 97.6863 284.7354 0009689 232.3208 127.7136 14.96945247161263 S-Net A 1 43188U 18014J 21014.48684374 .00000703 00000-0 66221-4 0 9991 2 43188 97.6866 284.7735 0009685 232.4759 127.5583 14.96943853161263 S-Net C 1 43189U 18014K 21014.75471397 .00000738 00000-0 69184-4 0 9990 2 43189 97.6863 284.9926 0009676 231.2643 128.7715 14.96944683159858 FMN 1 1 43192U 18015A 21014.79701005 .00002958 00000-0 11456-3 0 9995 2 43192 97.4663 149.7815 0016502 67.3093 67.8544 15.26854682164139 Shaonian Xing 1 43199U 18015H 21014.78665808 .00002093 00000-0 82232-4 0 9992 2 43199 97.4452 147.4524 0017831 75.9781 61.3946 15.26686097164193 SurfSat 1 43614U 18070B 21014.55297907 .00003012 00000-0 73863-4 0 9993 2 43614 93.0248 242.0807 0012133 235.1880 124.8234 15.40718965130965 CP-7 DAVE 1 43615U 18070C 21014.54413162 .00002960 00000-0 73133-4 0 9997 2 43615 93.0252 242.0515 0012328 235.0496 124.9602 15.40486606130958 ELFIN-B 1 43616U 18070D 21014.55481660 .00003823 00000-0 88073-4 0 9995 2 43616 93.0209 242.0968 0012363 235.0757 124.9338 15.42576859131030 ELFIN-A 1 43617U 18070E 21014.55396782 .00004581 00000-0 10436-3 0 9995 2 43617 93.0264 242.7965 0011819 230.8352 129.1855 15.42906913131045 STARS-Me Mother 1 43640U 98067PQ 21014.19358647 .00034107 00000-0 22072-3 0 9999 2 43640 51.6325 313.3374 0005208 111.2677 248.8879 15.75708142129823 CubeBel 1 1 43666U 18083E 21014.77105946 .00001307 00000-0 65955-4 0 9997 2 43666 97.4719 44.9905 0014553 351.5792 121.3653 15.18815617122688 Changshagaoxin 1 43669U 18083H 21014.77450444 .00000909 00000-0 48359-4 0 9992 2 43669 97.4609 42.5401 0010398 348.3669 122.0992 15.17725921122573 Ten-Koh 1 43677U 18084G 21014.31090847 .00000069 00000-0 12981-4 0 9998 2 43677 97.9022 137.1627 0016086 178.1417 181.9863 14.90385020120343 PO-101 1 43678U 18084H 21014.77850844 .00000485 00000-0 53961-4 0 9995 2 43678 97.9041 139.4814 0009625 190.1105 169.9937 14.91700689120528 IRVINE 01 1 43693U 18088D 21014.54123941 .00002884 00000-0 11617-3 0 9998 2 43693 85.0359 297.1576 0014844 229.2348 130.7608 15.24281118120983 QO-100 1 43700U 18090A 21014.67117006 .00000137 00000-0 00000 0 0 9998 2 43700 0.0217 15.5334 0001430 323.8149 42.4049 1.00266225 8077 Reaktor Hello World 1 43743U 18096AA 21014.47041902 .00001578 00000-0 59984-4 0 9990 2 43743 97.4022 93.1190 0019121 101.3512 258.9877 15.28131311118616 MinXSS-2 1 43758U 18099A 21014.46009949 .00000308 00000-0 32689-4 0 9996 2 43758 97.6854 88.7274 0015248 199.3702 160.6942 14.95873094115493 AO-95 1 43770U 18099N 21014.46667448 .00000560 00000-0 56152-4 0 9995 2 43770 97.6843 87.9268 0014003 207.1478 152.9012 14.95166299115444 RANGE-B 1 43772U 18099Q 21014.45675572 .00000288 00000-0 31176-4 0 9999 2 43772 97.6920 88.6877 0013916 194.4439 165.6386 14.95417628115443 RANGE-A 1 43773U 18099R 21014.46308514 .00000390 00000-0 40733-4 0 9993 2 43773 97.6781 87.3916 0013288 193.7028 166.3834 14.95098944115438 MOVE-II 1 43780U 18099Y 21014.48568267 .00000998 00000-0 94757-4 0 9995 2 43780 97.6857 88.3193 0012965 203.2083 156.8554 14.95683195115450 SNUSat 2 1 43782U 18099AA 21014.45793163 .00000187 00000-0 22040-4 0 9995 2 43782 97.6840 88.2056 0012525 192.8149 167.2755 14.95420761115456 SnugLite 1 43784U 18099AC 21014.74615616 .00000809 00000-0 78076-4 0 9996 2 43784 97.6808 88.2555 0014639 199.8961 160.1691 14.95534338115517 ITASat 1 1 43786U 18099AE 21014.75176665 .00000712 00000-0 69403-4 0 9992 2 43786 97.6863 88.7767 0014704 199.2250 160.8418 14.95484384115517 EAGLET 1 1 43790U 18099AJ 21014.15499232 .00000699 00000-0 67609-4 0 9999 2 43790 97.6855 88.5390 0012846 204.6942 155.3666 14.95863214115143 ESEO 1 43792U 18099AL 21014.45278199 -.00000209 00000-0 -13620-4 0 9994 2 43792 97.6820 88.5358 0012782 201.5420 158.5265 14.95674471115243 CSIM 1 43793U 18099AM 21014.15406377 .00001052 00000-0 98001-4 0 9994 2 43793 97.6839 88.4070 0012705 197.5440 162.5344 14.96340464115195 Astrocast 0.1 1 43798U 18099AS 21014.79162826 .00000080 00000-0 12228-4 0 9994 2 43798 97.6849 89.3106 0012434 182.4351 177.6812 14.96008701115545 JO-97 1 43803U 18099AX 21014.80615195 .00000762 00000-0 73499-4 0 9999 2 43803 97.6821 88.6040 0014781 199.2330 160.8335 14.95695659115526 Suomi 100 1 43804U 18099AY 21014.74219119 .00000792 00000-0 76246-4 0 9995 2 43804 97.6820 88.5191 0014812 199.5753 160.4901 14.95675629115529 Al Farabi 2 1 43805U 18099AZ 21014.56276844 .00001289 00000-0 12026-3 0 9991 2 43805 97.6838 88.4965 0014614 199.3335 160.7335 14.95855535115509 PWSat 2 1 43814U 18099BJ 21014.78827389 .00138986 00000-0 31965-2 0 9998 2 43814 97.7874 108.7121 0010647 227.4273 132.6075 15.42062030115845 CHOMPTT 1 43855U 18104G 21014.51873957 .00001188 00000-0 47893-4 0 9995 2 43855 85.0358 35.4998 0017170 2.4533 357.6791 15.23498846115653 ISAT 1 43879U 18111D 21014.81313828 .00000264 00000-0 28355-4 0 9994 2 43879 97.6936 284.7140 0011788 256.3212 103.6712 14.96447905110073 UWE-4 1 43880U 18111E 21014.49147491 .00000940 00000-0 87307-4 0 9994 2 43880 97.6961 284.7831 0010594 258.2015 101.8019 14.96694749112056 Sparrow 1 43881U 18111F 21014.46755720 .00000192 00000-0 21890-4 0 9996 2 43881 97.6963 284.8640 0011211 256.7101 103.2870 14.96740681112052 Lume 1 1 43908U 18111AJ 21014.29295005 .00001253 00000-0 51686-4 0 9997 2 43908 97.2494 273.8300 0022348 115.1215 245.2345 15.25661490114166 FO-98 1 43933U 19003B 21014.57301127 .00002420 00000-0 10389-3 0 9991 2 43933 97.2033 61.9551 0016841 213.1586 146.8597 15.23503316110653 FO-99 1 43937U 19003F 21014.55941630 .00001494 00000-0 62099-4 0 9998 2 43937 97.1992 63.7784 0023182 193.9672 166.0928 15.25085106110808 Delphini 1 1 44030U 98067PW 21014.78092528 .00081287 00000-0 33341-3 0 9993 2 44030 51.6300 311.9250 0005612 133.1899 226.9575 15.85290741111761 MYSat 1 1 44045U 18092F 21014.52456664 .00002390 00000-0 72590-4 0 9994 2 44045 51.6390 96.4063 0010990 9.8873 350.2325 15.38323454107753 AstroCast 0.2 1 44083U 19018F 21014.69134524 .00000837 00000-0 39591-4 0 9999 2 44083 97.3953 78.5292 0013973 146.2071 214.0058 15.22024989 99509 AISTechSat 3 1 44103U 19018AB 21014.75020743 .00001162 00000-0 51364-4 0 9990 2 44103 97.3825 78.8914 0013725 158.3452 298.2209 15.23636339 99608 AISat 1 1 44104U 19018AC 21014.76639158 .00001311 00000-0 43512-4 0 9990 2 44104 97.4427 91.5498 0057387 180.5577 179.5610 15.31577424100141 Raavana-1 1 44329U 98067QE 21014.63385439 .00018281 00000-0 18594-3 0 9991 2 44329 51.6384 351.0951 0006591 73.9635 286.2085 15.65202990 89983 Uguisu 1 44330U 98067QF 21014.34345644 .00018686 00000-0 19149-3 0 9991 2 44330 51.6361 352.8512 0006541 71.6744 288.4962 15.64995875 89914 NepaliSat-1 1 44331U 98067QG 21014.30583439 .00017337 00000-0 17684-3 0 9998 2 44331 51.6358 352.6013 0006558 74.1882 285.9836 15.65175044 89926 Prox-1 1 44339U 19036A 21014.64235577 .00000861 00000-0 15339-3 0 9998 2 44339 23.9990 222.7314 0011196 298.4189 61.5174 14.53322992 82854 Oculus-ASR 1 44348U 19036K 21014.45898127 .00008197 00000-0 11341-3 0 9992 2 44348 28.5141 75.0049 0347816 46.0205 316.8528 15.07596834 85618 Armadillo 1 44352U 19036P 21014.48387215 .00011260 00000-0 15106-3 0 9999 2 44352 28.5294 63.0879 0326511 64.0621 299.3242 15.12719052 85681 NO-104 1 44354U 19036R 21014.49854298 .00008168 00000-0 11056-3 0 9995 2 44354 28.5290 69.9191 0343731 52.6562 310.4836 15.08869725 85661 NO-103 1 44355U 19036S 21014.37731646 .00014566 00000-0 17751-3 0 9991 2 44355 28.5278 46.3057 0302989 91.0384 272.4934 15.19485912 85892 CP9 1 44360U 19036X 21014.31995905 .00030334 -57282-5 27230-3 0 9995 2 44360 28.5095 11.0309 0259945 149.8470 211.7369 15.33375033 86117 Move-IIb 1 44398U 19038N 21014.58044377 .00001156 00000-0 68713-4 0 9997 2 44398 97.5631 339.5363 0025894 117.7863 242.5995 15.13032134 84498 SONATE 1 44400U 19038Q 21014.88658162 .00000825 00000-0 51141-4 0 9996 2 44400 97.5677 339.8123 0026401 116.4898 243.9045 15.12269558 84524 BeeSat 9 1 44412U 19038AC 21014.44526446 .00001022 00000-0 61589-4 0 9997 2 44412 97.5679 339.5474 0023740 122.2887 238.0647 15.12809915 84161 JAISAT-1 1 44419U 19038F 21014.46425663 .00000970 00000-0 57956-4 0 9999 2 44419 97.5683 339.9920 0022625 120.8695 239.4765 15.13293864 84500 LightSail-2 1 44420U 19036AC 21014.58273132 .00006693 00000-0 13731-2 0 9993 2 44420 24.0086 211.4382 0020960 287.4248 72.3953 14.58154728 81103 Taurus 1 1 44530U 19059C 21014.83002442 .00000453 00000-0 14018-3 0 9990 2 44530 98.5584 103.8804 0013528 240.7775 119.2048 14.45854978 70885 Duchifat 3 1 44854U 19089C 21014.82947129 .00000439 00000-0 41702-4 0 9996 2 44854 36.9674 288.9940 0009258 327.8136 32.2070 14.99293173 60037 OPS-SAT 1 44878U 19092F 21014.69251936 .00001161 00000-0 63726-4 0 9998 2 44878 97.4687 200.5037 0013641 350.2072 9.8893 15.16044945 59533 TO-108 1 44881U 19093C 21014.80643936 .00000331 00000-0 49016-4 0 9995 2 44881 97.9401 95.2092 0016300 71.9859 288.3109 14.81427710 57988 FloripaSat 1 1 44885U 19093G 21014.77569765 .00000270 00000-0 40523-4 0 9998 2 44885 97.9413 95.5488 0016092 82.3466 277.9577 14.82177417 58009 RS-44 1 44909U 19096E 21014.53012726 .00000019 00000-0 24381-4 0 9997 2 44909 82.5195 215.0621 0218365 93.0026 269.6085 12.79708258 49187 SwampSat-2 1 45115U 19071E 21014.58641712 .00016005 00000-0 37074-3 0 9992 2 45115 51.6394 55.5305 0009966 93.6642 266.5484 15.42548859 53610 HO-107 1 45119U 19071J 21014.53601902 .00002556 00000-0 85935-4 0 9994 2 45119 51.6429 62.5872 0012276 93.8006 266.4380 15.34706871 53529 Phoenix 1 45258U 98067RB 21014.46045100 .00005361 00000-0 89757-4 0 9997 2 45258 51.6410 17.7026 0006642 46.3504 313.8036 15.53622272 51247 AztechSat-1 1 45261U 98067RE 21014.27617394 .00013010 00000-0 17985-3 0 9993 2 45261 51.6401 14.9836 0008142 59.8514 300.3284 15.57478737 51296 QARMAN 1 45263U 98067RG 21014.38587816 .00009908 00000-0 14749-3 0 9998 2 45263 51.6407 16.4642 0007749 57.3310 302.8428 15.55788793 51319 Quetzal 1 1 45598U 98067RL 21014.40264528 .00009097 00000-0 14234-3 0 9992 2 45598 51.6416 18.8334 0002704 118.5593 241.5670 15.54546841 40550 BY70-2 1 45857U 20042B 21014.84297958 .00000923 00000-0 13948-3 0 9999 2 45857 97.9987 92.1510 0010293 355.4996 4.6118 14.76620193 28878 UPMSat 2 1 46276U 20061E 21014.79384274 .00000531 00000-0 30840-4 0 9994 2 46276 97.4502 91.5534 0002277 131.2297 228.9132 15.16233636 20256 AmicalSat 1 46287U 20061R 21014.47028262 .00000699 00000-0 46624-4 0 9995 2 46287 97.5053 91.0122 0001261 256.6036 103.5053 15.10177911 20104 SALSAT 1 46495U 20068K 21014.57924988 .00000392 00000-0 33409-4 0 9991 2 46495 97.6792 313.1260 0015817 232.8827 127.0955 15.03311050 16218 BY70-3 1 46839U 20079N 21014.81158225 .00002627 00000-0 85698-4 0 9995 2 46839 97.2590 91.7047 0008477 47.8435 60.9129 15.32643515 10664 Bobcat-1 1 46921U 98067RR 21014.26884369 .00005024 00000-0 91173-4 0 9992 2 46921 51.6435 23.1851 0001350 206.5137 153.5784 15.51474692 10908 SPOC 1 46922U 98067RS 21014.38794359 .00006705 00000-0 11716-3 0 9996 2 46922 51.6438 22.4827 0000844 207.1278 152.9668 15.51935583 10889 Neutron-1 1 46923U 98067RT 21014.40178787 .00005090 00000-0 92578-4 0 9993 2 46923 51.6435 22.5724 0001114 230.7562 129.3329 15.51376446 10950 /EX
